Time,TemperatureF,DewpointF,PressureIn,WindDirection,WindDirectionDegrees,WindSpeedMPH,WindSpeedGustMPH,Humidity,HourlyPrecipIn,Conditions,Clouds,dailyrainin,SolarRadiationWatts/m^2,SoftwareType,DateUTC
2017-12-12 00:12:00,28.3,20.0,30.18,South,180,4.0,9.0,71,0.00,,,0.00,0,weatherlink.com 1.10,2017-12-12 05:12:00,
2017-12-12 00:42:00,27.8,20.0,30.19,WNW,290,5.0,8.0,71,0.00,,,0.00,0,weatherlink.com 1.10,2017-12-12 05:42:00,
2017-12-12 01:13:00,27.0,19.0,30.18,NE,34,5.0,9.0,72,0.00,,,0.00,0,weatherlink.com 1.10,2017-12-12 06:13:00,
2017-12-12 01:28:00,25.9,18.0,30.18,NNE,28,7.0,13.0,73,0.00,,,0.00,0,weatherlink.com 1.10,2017-12-12 06:28:00,
2017-12-12 01:58:00,26.1,20.0,30.18,NE,41,2.0,13.0,76,0.00,,,0.00,0,weatherlink.com 1.10,2017-12-12 06:58:00,
2017-12-12 02:13:00,25.7,19.0,30.17,ENE,77,5.0,11.0,76,0.00,,,0.00,0,weatherlink.com 1.10,2017-12-12 07:13:00,
2017-12-12 02:43:00,25.2,19.0,30.17,ENE,73,3.0,16.0,78,0.00,,,0.00,0,weatherlink.com 1.10,2017-12-12 07:43:00,
2017-12-12 02:58:00,24.9,19.0,30.16,North,354,6.0,10.0,79,0.00,,,0.00,0,weatherlink.com 1.10,2017-12-12 07:58:00,
2017-12-12 03:13:00,24.6,19.0,30.15,NE,48,2.0,13.0,80,0.00,,,0.00,0,weatherlink.com 1.10,2017-12-12 08:13:00,
2017-12-12 03:43:00,23.8,19.0,30.14,NE,45,8.0,11.0,81,0.00,,,0.00,0,weatherlink.com 1.10,2017-12-12 08:43:00,
2017-12-12 03:58:00,22.8,18.0,30.14,NNE,19,6.0,15.0,83,0.00,,,0.00,0,weatherlink.com 1.10,2017-12-12 08:58:00,
2017-12-12 04:13:00,22.3,18.0,30.13,NNE,18,7.0,13.0,84,0.00,,,0.00,0,weatherlink.com 1.10,2017-12-12 09:13:00,
2017-12-12 04:28:00,22.1,19.0,30.12,NE,37,6.0,14.0,86,0.00,,,0.00,0,weatherlink.com 1.10,2017-12-12 09:28:00,
2017-12-12 04:58:00,21.3,18.0,30.12,NNE,26,12.0,16.0,87,0.00,,,0.00,0,weatherlink.com 1.10,2017-12-12 09:58:00,
2017-12-12 05:43:00,20.6,18.0,30.10,NNE,17,13.0,16.0,89,0.00,,,0.00,0,weatherlink.com 1.10,2017-12-12 10:43:00,
2017-12-12 05:58:00,20.5,18.0,30.10,NE,35,9.0,16.0,90,0.00,,,0.00,0,weatherlink.com 1.10,2017-12-12 10:58:00,
2017-12-12 06:28:00,20.0,18.0,30.09,NNE,17,4.0,14.0,90,0.00,,,0.00,0,weatherlink.com 1.10,2017-12-12 11:28:00,
2017-12-12 06:44:00,20.0,18.0,30.09,NE,35,7.0,17.0,91,0.00,,,0.00,0,weatherlink.com 1.10,2017-12-12 11:44:00,
2017-12-12 06:59:00,20.0,18.0,30.09,North,11,10.0,16.0,91,0.00,,,0.00,0,weatherlink.com 1.10,2017-12-12 11:59:00,
2017-12-12 07:29:00,19.9,18.0,30.08,NE,41,10.0,12.0,91,0.00,,,0.00,9,weatherlink.com 1.10,2017-12-12 12:29:00,
2017-12-12 07:59:00,19.8,18.0,30.05,North,354,9.0,14.0,91,0.00,,,0.00,19,weatherlink.com 1.10,2017-12-12 12:59:00,
2017-12-12 08:14:00,20.0,18.0,30.04,NE,41,4.0,15.0,91,0.00,,,0.00,23,weatherlink.com 1.10,2017-12-12 13:14:00,
2017-12-12 08:29:00,20.5,18.0,30.03,NE,40,13.0,16.0,91,0.00,,,0.00,35,weatherlink.com 1.10,2017-12-12 13:29:00,
2017-12-12 08:44:00,20.5,18.0,30.02,ENE,64,8.0,18.0,91,0.00,,,0.00,56,weatherlink.com 1.10,2017-12-12 13:44:00,
2017-12-12 08:59:00,21.0,19.0,30.00,ESE,112,9.0,15.0,92,0.00,,,0.00,84,weatherlink.com 1.10,2017-12-12 13:59:00,
2017-12-12 09:14:00,21.3,19.0,29.99,SW,218,3.0,13.0,92,0.00,,,0.00,100,weatherlink.com 1.10,2017-12-12 14:14:00,
2017-12-12 09:29:00,21.5,20.0,29.98,NNE,18,4.0,15.0,92,0.00,,,0.00,74,weatherlink.com 1.10,2017-12-12 14:29:00,
2017-12-12 09:44:00,21.6,20.0,29.99,NNE,15,5.0,13.0,92,0.00,,,0.00,40,weatherlink.com 1.10,2017-12-12 14:44:00,
2017-12-12 09:59:00,22.2,20.0,29.99,North,4,6.0,11.0,92,0.00,,,0.00,26,weatherlink.com 1.10,2017-12-12 14:59:00,
2017-12-12 10:14:00,22.1,20.0,29.97,NNE,27,7.0,13.0,91,0.00,,,0.00,28,weatherlink.com 1.10,2017-12-12 15:14:00,
2017-12-12 10:44:00,22.4,21.0,29.95,NE,45,4.0,14.0,92,0.00,,,0.00,67,weatherlink.com 1.10,2017-12-12 15:44:00,
2017-12-12 11:14:00,22.5,21.0,29.91,NNE,31,4.0,14.0,92,0.00,,,0.00,79,weatherlink.com 1.10,2017-12-12 16:14:00,
2017-12-12 11:44:00,23.0,21.0,29.87,NNE,17,10.0,14.0,92,0.00,,,0.00,95,weatherlink.com 1.10,2017-12-12 16:44:00,
2017-12-12 11:59:00,23.2,21.0,29.86,NE,52,8.0,13.0,92,0.00,,,0.00,81,weatherlink.com 1.10,2017-12-12 16:59:00,
2017-12-12 12:15:00,23.4,22.0,29.85,NNE,18,4.0,13.0,92,0.00,,,0.00,65,weatherlink.com 1.10,2017-12-12 17:15:00,
2017-12-12 12:45:00,23.1,21.0,29.82,NNE,23,6.0,14.0,93,0.00,,,0.00,53,weatherlink.com 1.10,2017-12-12 17:45:00,
2017-12-12 13:00:00,23.2,22.0,29.80,NE,43,7.0,14.0,93,0.00,,,0.00,47,weatherlink.com 1.10,2017-12-12 18:00:00,
2017-12-12 13:15:00,23.5,22.0,29.79,ENE,68,7.0,13.0,93,0.00,,,0.00,46,weatherlink.com 1.10,2017-12-12 18:15:00,
2017-12-12 13:30:00,23.6,22.0,29.77,NE,50,7.0,14.0,93,0.00,,,0.00,53,weatherlink.com 1.10,2017-12-12 18:30:00,
2017-12-12 13:45:00,23.9,22.0,29.77,NE,48,8.0,13.0,93,0.00,,,0.00,54,weatherlink.com 1.10,2017-12-12 18:45:00,
2017-12-12 14:00:00,23.6,22.0,29.76,NNE,30,5.0,14.0,93,0.00,,,0.00,33,weatherlink.com 1.10,2017-12-12 19:00:00,
2017-12-12 14:15:00,23.7,22.0,29.75,NNE,17,10.0,14.0,93,0.00,,,0.00,32,weatherlink.com 1.10,2017-12-12 19:15:00,
2017-12-12 14:45:00,24.9,23.0,29.73,ENE,66,7.0,13.0,93,0.00,,,0.00,28,weatherlink.com 1.10,2017-12-12 19:45:00,
2017-12-12 15:00:00,25.5,24.0,29.71,NE,36,7.0,15.0,93,0.00,,,0.00,18,weatherlink.com 1.10,2017-12-12 20:00:00,
2017-12-12 15:15:00,26.2,25.0,29.70,ENE,64,9.0,13.0,94,0.00,,,0.00,14,weatherlink.com 1.10,2017-12-12 20:15:00,
2017-12-12 15:30:00,26.6,25.0,29.69,NNE,31,3.0,14.0,94,0.00,,,0.00,7,weatherlink.com 1.10,2017-12-12 20:30:00,
2017-12-12 15:45:00,26.9,25.0,29.67,NE,37,5.0,13.0,94,0.00,,,0.00,0,weatherlink.com 1.10,2017-12-12 20:45:00,
2017-12-12 16:00:00,27.3,26.0,29.66,NNE,31,7.0,10.0,94,0.00,,,0.00,0,weatherlink.com 1.10,2017-12-12 21:00:00,
2017-12-12 16:15:00,28.4,27.0,29.63,NE,51,2.0,10.0,94,0.00,,,0.00,0,weatherlink.com 1.10,2017-12-12 21:15:00,
2017-12-12 16:30:00,28.3,27.0,29.63,NE,38,8.0,12.0,94,0.00,,,0.00,0,weatherlink.com 1.10,2017-12-12 21:30:00,
2017-12-12 16:45:00,28.6,27.0,29.61,NE,54,4.0,7.0,95,0.00,,,0.00,0,weatherlink.com 1.10,2017-12-12 21:45:00,
2017-12-12 17:00:00,28.8,28.0,29.60,NE,46,4.0,11.0,95,0.00,,,0.00,0,weatherlink.com 1.10,2017-12-12 22:00:00,
2017-12-12 17:15:00,28.9,28.0,29.59,East,81,1.0,9.0,95,0.00,,,0.00,0,weatherlink.com 1.10,2017-12-12 22:15:00,
2017-12-12 17:45:00,30.3,29.0,29.56,NE,47,0.0,0.0,95,0.00,,,0.00,0,weatherlink.com 1.10,2017-12-12 22:45:00,
2017-12-12 18:00:00,31.8,31.0,29.55,NE,48,0.0,0.0,95,0.00,,,0.00,0,weatherlink.com 1.10,2017-12-12 23:00:00,
2017-12-12 18:15:00,32.3,31.0,29.53,NE,47,0.0,0.0,95,0.00,,,0.00,0,weatherlink.com 1.10,2017-12-12 23:15:00,
2017-12-12 18:31:00,33.5,32.0,29.51,NE,48,0.0,0.0,95,0.00,,,0.00,0,weatherlink.com 1.10,2017-12-12 23:31:00,
2017-12-12 18:46:00,34.2,33.0,29.50,NE,47,0.0,0.0,95,0.00,,,0.00,0,weatherlink.com 1.10,2017-12-12 23:46:00,
2017-12-12 19:16:00,33.2,32.0,29.48,NE,48,0.0,0.0,95,0.00,,,0.00,0,weatherlink.com 1.10,2017-12-13 00:16:00,
2017-12-12 19:46:00,32.7,32.0,29.47,NE,47,0.0,0.0,95,0.00,,,0.00,0,weatherlink.com 1.10,2017-12-13 00:46:00,
2017-12-12 20:01:00,33.5,33.0,29.30,NE,47,0.0,0.0,96,0.00,,,0.00,0,weatherlink.com 1.10,2017-12-13 01:01:00,
2017-12-12 20:17:00,33.4,32.0,29.29,NE,48,0.0,0.0,96,0.00,,,0.00,0,weatherlink.com 1.10,2017-12-13 01:17:00,
2017-12-12 20:31:00,32.5,31.0,29.29,NE,48,0.0,0.0,95,0.00,,,0.00,0,weatherlink.com 1.10,2017-12-13 01:31:00,
2017-12-12 20:46:00,32.1,31.0,29.28,NE,48,0.0,0.0,96,0.00,,,0.00,0,weatherlink.com 1.10,2017-12-13 01:46:00,
2017-12-12 21:01:00,31.1,30.0,29.27,NE,47,0.0,0.0,95,0.00,,,0.00,0,weatherlink.com 1.10,2017-12-13 02:01:00,